Time,TemperatureF,DewpointF,PressureIn,WindDirection,WindDirectionDegrees,WindSpeedMPH,WindSpeedGustMPH,Humidity,HourlyPrecipIn,Conditions,Clouds,dailyrainin,SoftwareType,DateUTC
2013-07-25 00:00:00,81.4,70.7,29.93,WSW,254,9.2,9.2,70,0.00,RA,OVC,0.00,WeatherDisplay:10.37,2013-07-25 04:00:00,
2013-07-25 00:01:00,81.4,70.7,29.93,WSW,248,9.2,9.2,70,0.00,RA,OVC,0.00,WeatherDisplay:10.37,2013-07-25 04:01:00,
2013-07-25 00:06:00,81.2,70.5,29.93,West,263,13.8,13.8,70,0.00,RA,OVC,0.00,WeatherDisplay:10.37,2013-07-25 04:06:00,
2013-07-25 00:11:00,81.2,70.9,29.93,WSW,238,0.0,1.0,71,0.00,SCT,OVC,0.00,WeatherDisplay:10.37,2013-07-25 04:11:00,
2013-07-25 00:16:00,81.1,70.8,29.93,WSW,244,12.0,12.0,71,0.00,SCT,OVC,0.00,WeatherDisplay:10.37,2013-07-25 04:16:00,
2013-07-25 00:21:00,80.9,70.6,29.93,WSW,244,10.0,10.0,71,0.00,SCT,OVC,0.00,WeatherDisplay:10.37,2013-07-25 04:21:00,
2013-07-25 00:26:00,80.9,71.0,29.93,WSW,254,7.0,7.0,72,0.00,SCT,OVC,0.00,WeatherDisplay:10.37,2013-07-25 04:26:00,
2013-07-25 00:32:00,80.7,70.8,29.93,WSW,250,11.5,11.5,72,0.00,SCT,OVC,0.00,WeatherDisplay:10.37,2013-07-25 04:32:00,
2013-07-25 00:37:00,80.7,71.2,29.93,West,268,8.1,8.1,73,0.00,SCT,OVC,0.00,WeatherDisplay:10.37,2013-07-25 04:37:00,
2013-07-25 00:42:00,80.5,71.0,29.93,WSW,248,10.4,10.4,73,0.00,SCT,OVC,0.00,WeatherDisplay:10.37,2013-07-25 04:42:00,
2013-07-25 00:47:00,80.5,71.4,29.93,WSW,246,8.1,8.1,74,0.00,SCT,OVC,0.00,WeatherDisplay:10.37,2013-07-25 04:47:00,
2013-07-25 00:52:00,80.3,71.3,29.93,WSW,248,12.7,12.7,74,0.00,SCT,OVC,0.00,WeatherDisplay:10.37,2013-07-25 04:52:00,
2013-07-25 00:57:00,80.3,71.3,29.93,WSW,253,10.4,10.4,74,0.00,SCT,OVC,0.00,WeatherDisplay:10.37,2013-07-25 04:57:00,
2013-07-25 01:02:00,80.1,71.5,29.93,WSW,254,0.0,0.0,75,0.00,SCT,OVC,0.00,WeatherDisplay:10.37,2013-07-25 05:02:00,
2013-07-25 01:07:00,80.1,71.5,29.93,WSW,242,5.8,5.8,75,0.00,SCT,OVC,0.00,WeatherDisplay:10.37,2013-07-25 05:07:00,
2013-07-25 01:12:00,79.9,71.3,29.93,WSW,245,6.9,6.9,75,0.00,SCT,OVC,0.00,WeatherDisplay:10.37,2013-07-25 05:12:00,
2013-07-25 01:17:00,79.9,71.7,29.92,WSW,245,7.0,7.0,76,0.00,SCT,OVC,0.00,WeatherDisplay:10.37,2013-07-25 05:17:00,
2013-07-25 01:22:00,79.9,71.7,29.92,WSW,240,8.1,8.1,76,0.00,SCT,OVC,0.00,WeatherDisplay:10.37,2013-07-25 05:22:00,
2013-07-25 01:27:00,79.9,71.7,29.92,WSW,239,0.0,0.0,76,0.00,SCT,OVC,0.00,WeatherDisplay:10.37,2013-07-25 05:27:00,
2013-07-25 01:32:00,79.9,71.7,29.92,WSW,241,3.5,0.0,76,0.00,SCT,OVC,0.00,WeatherDisplay:10.37,2013-07-25 05:32:00,
2013-07-25 01:37:00,79.9,71.7,29.92,WSW,241,0.0,0.0,76,0.00,SCT,OVC,0.00,WeatherDisplay:10.37,2013-07-25 05:37:00,
2013-07-25 01:42:00,79.8,71.9,29.92,WSW,245,0.0,0.0,77,0.00,SCT,OVC,0.00,WeatherDisplay:10.37,2013-07-25 05:42:00,
2013-07-25 01:47:00,79.8,72.3,29.92,WSW,245,0.0,0.0,78,0.00,SCT,OVC,0.00,WeatherDisplay:10.37,2013-07-25 05:47:00,
2013-07-25 01:52:00,79.6,72.1,29.92,WSW,245,0.0,0.0,78,0.00,SCT,OVC,0.00,WeatherDisplay:10.37,2013-07-25 05:52:00,
2013-07-25 01:57:00,79.4,71.9,29.92,WSW,245,0.0,0.0,78,0.00,SCT,OVC,0.00,WeatherDisplay:10.37,2013-07-25 05:57:00,
2013-07-25 02:02:00,79.2,71.7,29.92,WSW,245,0.0,0.0,78,0.00,SCT,OVC,0.00,WeatherDisplay:10.37,2013-07-25 06:02:00,
2013-07-25 02:07:00,78.8,71.7,29.92,WSW,245,0.0,0.0,79,0.00,SCT,OVC,0.00,WeatherDisplay:10.37,2013-07-25 06:07:00,
2013-07-25 02:12:00,78.6,71.9,29.92,WSW,245,0.0,0.0,80,0.00,SCT,OVC,0.00,WeatherDisplay:10.37,2013-07-25 06:12:00,
2013-07-25 02:17:00,78.5,71.8,29.91,WSW,245,0.0,0.0,80,0.00,SCT,OVC,0.00,WeatherDisplay:10.37,2013-07-25 06:17:00,
2013-07-25 02:22:00,78.1,71.8,29.91,WSW,244,9.2,9.2,81,0.00,SCT,OVC,0.00,WeatherDisplay:10.37,2013-07-25 06:22:00,
2013-07-25 02:27:00,77.9,71.6,29.91,WSW,245,0.0,0.0,81,0.00,SCT,OVC,0.00,WeatherDisplay:10.37,2013-07-25 06:27:00,
2013-07-25 02:32:00,77.9,72.0,29.90,WSW,245,3.5,3.5,82,0.00,SCT,OVC,0.00,WeatherDisplay:10.37,2013-07-25 06:32:00,
2013-07-25 02:37:00,77.9,72.0,29.90,WSW,245,0.0,0.0,82,0.00,SCT,OVC,0.00,WeatherDisplay:10.37,2013-07-25 06:37:00,
2013-07-25 02:42:00,77.9,72.0,29.90,WSW,245,0.0,0.0,82,0.00,SCT,OVC,0.00,WeatherDisplay:10.37,2013-07-25 06:42:00,
2013-07-25 02:47:00,77.7,71.4,29.90,WSW,246,0.0,0.0,81,0.00,SCT,OVC,0.00,WeatherDisplay:10.37,2013-07-25 06:47:00,
2013-07-25 02:52:00,77.7,71.8,29.90,WSW,246,0.0,0.0,82,0.00,SCT,OVC,0.00,WeatherDisplay:10.37,2013-07-25 06:52:00,
2013-07-25 02:57:00,77.7,71.8,29.90,WSW,246,0.0,0.0,82,0.00,SCT,OVC,0.00,WeatherDisplay:10.37,2013-07-25 06:57:00,
2013-07-25 03:02:00,77.6,71.7,29.90,WSW,246,0.0,0.0,82,0.00,SCT,OVC,0.00,WeatherDisplay:10.37,2013-07-25 07:02:00,
2013-07-25 03:07:00,77.6,71.7,29.90,WSW,247,0.0,0.0,82,0.00,SCT,OVC,0.00,WeatherDisplay:10.37,2013-07-25 07:07:00,
2013-07-25 03:12:00,77.4,71.5,29.90,WSW,247,0.0,0.0,82,0.00,SCT,OVC,0.00,WeatherDisplay:10.37,2013-07-25 07:12:00,
2013-07-25 03:17:00,77.4,71.8,29.90,WSW,247,0.0,0.0,83,0.00,SCT,OVC,0.00,WeatherDisplay:10.37,2013-07-25 07:17:00,
2013-07-25 03:22:00,77.2,71.6,29.90,WSW,247,0.0,0.0,83,0.00,SCT,OVC,0.00,WeatherDisplay:10.37,2013-07-25 07:22:00,
2013-07-25 03:27:00,77.0,71.4,29.90,WSW,247,0.0,0.0,83,0.00,SCT,OVC,0.00,WeatherDisplay:10.37,2013-07-25 07:27:00,
2013-07-25 03:32:00,76.8,71.6,29.89,WSW,247,0.0,0.0,84,0.00,SCT,OVC,0.00,WeatherDisplay:10.37,2013-07-25 07:32:00,
2013-07-25 03:37:00,76.7,71.5,29.89,WSW,247,0.0,0.0,84,0.00,SCT,OVC,0.00,WeatherDisplay:10.37,2013-07-25 07:37:00,
2013-07-25 03:42:00,76.5,71.7,29.89,WSW,246,0.0,0.0,85,0.00,SCT,OVC,0.00,WeatherDisplay:10.37,2013-07-25 07:42:00,
2013-07-25 03:47:00,76.5,71.7,29.89,WSW,247,0.0,0.0,85,0.00,SCT,OVC,0.00,WeatherDisplay:10.37,2013-07-25 07:47:00,
2013-07-25 03:52:00,76.5,71.7,29.89,WSW,247,0.0,0.0,85,0.00,SCT,OVC,0.00,WeatherDisplay:10.37,2013-07-25 07:52:00,
2013-07-25 03:57:00,76.7,71.8,29.89,WSW,247,0.0,0.0,85,0.00,SCT,OVC,0.00,WeatherDisplay:10.37,2013-07-25 07:57:00,
2013-07-25 04:02:00,76.5,71.7,29.89,WSW,246,0.0,0.0,85,0.00,SCT,OVC,0.00,WeatherDisplay:10.37,2013-07-25 08:02:00,
2013-07-25 04:07:00,76.5,71.7,29.89,WSW,247,0.0,0.0,85,0.00,SCT,OVC,0.00,WeatherDisplay:10.37,2013-07-25 08:07:00,
2013-07-25 04:12:00,76.3,71.5,29.89,WSW,247,0.0,0.0,85,0.00,SCT,OVC,0.00,WeatherDisplay:10.37,2013-07-25 08:12:00,
2013-07-25 04:17:00,76.3,71.8,29.89,WSW,247,0.0,0.0,86,0.00,SCT,OVC,0.00,WeatherDisplay:10.37,2013-07-25 08:17:00,
2013-07-25 04:23:00,76.3,71.8,29.89,WSW,247,0.0,0.0,86,0.00,SCT,OVC,0.00,WeatherDisplay:10.37,2013-07-25 08:23:00,
2013-07-25 04:28:00,76.1,71.6,29.89,WSW,247,0.0,0.0,86,0.00,SCT,OVC,0.00,WeatherDisplay:10.37,2013-07-25 08:28:00,
2013-07-25 04:33:00,76.1,71.6,29.89,WSW,247,0.0,0.0,86,0.00,SCT,OVC,0.00,WeatherDisplay:10.37,2013-07-25 08:33:00,
2013-07-25 04:38:00,76.0,71.5,29.89,WSW,247,0.0,0.0,86,0.00,SCT,OVC,0.00,WeatherDisplay:10.37,2013-07-25 08:38:00,
2013-07-25 04:43:00,75.8,71.7,29.89,WSW,247,0.0,0.0,87,0.00,SCT,OVC,0.00,WeatherDisplay:10.37,2013-07-25 08:43:00,
2013-07-25 04:48:00,75.8,71.7,29.89,WSW,247,0.0,0.0,87,0.00,SCT,OVC,0.00,WeatherDisplay:10.37,2013-07-25 08:48:00,
2013-07-25 04:53:00,75.6,71.5,29.89,WSW,247,0.0,0.0,87,0.00,SCT,OVC,0.00,WeatherDisplay:10.37,2013-07-25 08:53:00,
2013-07-25 04:58:00,75.6,71.8,29.89,WSW,247,0.0,0.0,88,0.00,SCT,OVC,0.00,WeatherDisplay:10.37,2013-07-25 08:58:00,
2013-07-25 05:03:00,75.4,71.6,29.89,WSW,247,0.0,0.0,88,0.00,SCT,OVC,0.00,WeatherDisplay:10.37,2013-07-25 09:03:00,
2013-07-25 05:08:00,75.4,71.6,29.89,WSW,247,0.0,0.0,88,0.00,SCT,OVC,0.00,WeatherDisplay:10.37,2013-07-25 09:08:00,
2013-07-25 05:13:00,75.3,71.5,29.89,WSW,247,0.0,0.0,88,0.00,SCT,OVC,0.00,WeatherDisplay:10.37,2013-07-25 09:13:00,
2013-07-25 05:18:00,75.3,71.5,29.89,WSW,247,0.0,0.0,88,0.00,SCT,OVC,0.00,WeatherDisplay:10.37,2013-07-25 09:18:00,
2013-07-25 05:23:00,75.3,71.8,29.89,WSW,247,0.0,0.0,89,0.00,SCT,OVC,0.00,WeatherDisplay:10.37,2013-07-25 09:23:00,
2013-07-25 05:28:00,75.3,71.8,29.89,WSW,247,0.0,0.0,89,0.00,SCT,OVC,0.00,WeatherDisplay:10.37,2013-07-25 09:28:00,
2013-07-25 05:33:00,75.1,71.6,29.89,WSW,247,0.0,0.0,89,0.00,SCT,OVC,0.00,WeatherDisplay:10.37,2013-07-25 09:33:00,
2013-07-25 05:38:00,75.3,71.8,29.89,WSW,247,0.0,0.0,89,0.00,SCT,OVC,0.00,WeatherDisplay:10.37,2013-07-25 09:38:00,
2013-07-25 05:43:00,75.4,72.3,29.89,WSW,247,0.0,0.0,90,0.00,SCT,OVC,0.00,WeatherDisplay:10.37,2013-07-25 09:43:00,
2013-07-25 05:48:00,75.4,72.3,29.89,WSW,247,0.0,0.0,90,0.00,SCT,OVC,0.00,WeatherDisplay:10.37,2013-07-25 09:48:00,
2013-07-25 05:53:00,75.3,72.2,29.89,WSW,247,0.0,0.0,90,0.00,SCT,OVC,0.00,WeatherDisplay:10.37,2013-07-25 09:53:00,
2013-07-25 05:58:00,75.3,72.2,29.89,WSW,247,0.0,0.0,90,0.00,SCT,OVC,0.00,WeatherDisplay:10.37,2013-07-25 09:58:00,
2013-07-25 06:03:00,75.1,72.0,29.90,WSW,247,0.0,0.0,90,0.00,SCT,OVC,0.00,WeatherDisplay:10.37,2013-07-25 10:03:00,
2013-07-25 06:08:00,75.1,72.0,29.90,WSW,247,0.0,0.0,90,0.00,SCT,OVC,0.00,WeatherDisplay:10.37,2013-07-25 10:08:00,
2013-07-25 06:13:00,75.1,72.0,29.90,WSW,247,0.0,0.0,90,0.00,SCT,OVC,0.00,WeatherDisplay:10.37,2013-07-25 10:13:00,
2013-07-25 06:18:00,74.9,71.8,29.90,WSW,247,0.0,0.0,90,0.00,SCT,OVC,0.00,WeatherDisplay:10.37,2013-07-25 10:18:00,
2013-07-25 06:23:00,74.9,71.8,29.90,WSW,247,0.0,0.0,90,0.00,SCT,OVC,0.00,WeatherDisplay:10.37,2013-07-25 10:23:00,
2013-07-25 06:28:00,74.7,71.6,29.90,WSW,247,0.0,0.0,90,0.00,SCT,OVC,0.00,WeatherDisplay:10.37,2013-07-25 10:28:00,
2013-07-25 06:33:00,74.7,71.6,29.91,WSW,247,0.0,0.0,90,0.00,SCT,OVC,0.00,WeatherDisplay:10.37,2013-07-25 10:33:00,
2013-07-25 06:38:00,74.7,71.9,29.91,WSW,247,0.0,0.0,91,0.00,SCT,OVC,0.00,WeatherDisplay:10.37,2013-07-25 10:38:00,
2013-07-25 06:43:00,74.7,71.9,29.91,WSW,247,0.0,0.0,91,0.00,SCT,OVC,0.00,WeatherDisplay:10.37,2013-07-25 10:43:00,
2013-07-25 06:48:00,74.7,71.9,29.91,WSW,247,0.0,0.0,91,0.00,SCT,OVC,0.00,WeatherDisplay:10.37,2013-07-25 10:48:00,
2013-07-25 06:53:00,74.9,72.1,29.91,WSW,247,0.0,0.0,91,0.00,SCT,OVC,0.00,WeatherDisplay:10.37,2013-07-25 10:53:00,
2013-07-25 06:58:00,75.1,72.3,29.91,WSW,247,0.0,0.0,91,0.00,SCT,OVC,0.00,WeatherDisplay:10.37,2013-07-25 10:58:00,
2013-07-25 07:03:00,75.4,72.9,29.92,WSW,247,0.0,0.0,92,0.00,SCT,OVC,0.00,WeatherDisplay:10.37,2013-07-25 11:03:00,
2013-07-25 07:08:00,75.6,73.1,29.92,WSW,246,0.0,0.0,92,0.00,SCT,OVC,0.00,WeatherDisplay:10.37,2013-07-25 11:08:00,
2013-07-25 07:13:00,75.6,73.1,29.92,WSW,247,0.0,0.0,92,0.00,SCT,OVC,0.00,WeatherDisplay:10.37,2013-07-25 11:13:00,
2013-07-25 07:18:00,75.8,73.3,29.92,WSW,247,0.0,0.0,92,0.00,SCT,OVC,0.00,WeatherDisplay:10.37,2013-07-25 11:18:00,
2013-07-25 07:23:00,76.0,73.5,29.92,WSW,247,0.0,0.0,92,0.00,SCT,OVC,0.00,WeatherDisplay:10.37,2013-07-25 11:23:00,
2013-07-25 07:28:00,76.3,73.5,29.92,WSW,247,0.0,0.0,91,0.00,SCT,OVC,0.00,WeatherDisplay:10.37,2013-07-25 11:28:00,
2013-07-25 07:33:00,76.7,73.5,29.92,WSW,246,0.0,0.0,90,0.00,SCT,OVC,0.00,WeatherDisplay:10.37,2013-07-25 11:33:00,
2013-07-25 07:38:00,77.2,73.7,29.92,WSW,246,0.0,0.0,89,0.00,SCT,OVC,0.00,WeatherDisplay:10.37,2013-07-25 11:38:00,
2013-07-25 07:43:00,77.6,74.1,29.92,WSW,246,0.0,0.0,89,0.00,SCT,OVC,0.00,WeatherDisplay:10.37,2013-07-25 11:43:00,
2013-07-25 07:48:00,77.9,74.1,29.93,WSW,246,0.0,0.0,88,0.00,SCT,OVC,0.00,WeatherDisplay:10.37,2013-07-25 11:48:00,
2013-07-25 07:53:00,78.5,74.3,29.93,WSW,246,0.0,0.0,87,0.00,SCT,OVC,0.00,WeatherDisplay:10.37,2013-07-25 11:53:00,
2013-07-25 07:58:00,78.8,73.9,29.93,WSW,242,0.0,0.0,85,0.00,SCT,OVC,0.00,WeatherDisplay:10.37,2013-07-25 11:58:00,
2013-07-25 08:03:00,79.4,73.8,29.93,SW,229,16.0,16.0,83,0.00,SCT,OVC,0.00,WeatherDisplay:10.37,2013-07-25 12:03:00,
2013-07-25 08:08:00,80.1,73.7,29.93,WSW,247,3.5,3.5,81,0.00,SCT,OVC,0.00,WeatherDisplay:10.37,2013-07-25 12:08:00,
2013-07-25 08:13:00,80.7,74.0,29.93,WSW,237,11.5,11.5,80,0.00,SCT,OVC,0.00,WeatherDisplay:10.37,2013-07-25 12:13:00,
2013-07-25 08:18:00,81.1,73.6,29.94,West,262,6.9,6.9,78,0.00,SCT,OVC,0.00,WeatherDisplay:10.37,2013-07-25 12:18:00,
2013-07-25 08:23:00,81.6,74.1,29.94,WSW,254,2.3,0.0,78,0.00,SCT,OVC,0.00,WeatherDisplay:10.37,2013-07-25 12:23:00,
2013-07-25 08:28:00,81.8,73.5,29.94,WSW,242,3.5,3.5,76,0.00,SCT,OVC,0.00,WeatherDisplay:10.37,2013-07-25 12:28:00,
2013-07-25 08:33:00,81.8,73.5,29.94,WSW,253,13.8,13.8,76,0.00,SCT,OVC,0.00,WeatherDisplay:10.37,2013-07-25 12:33:00,
2013-07-25 08:38:00,81.8,73.5,29.94,SW,233,13.8,13.8,76,0.00,SCT,OVC,0.00,WeatherDisplay:10.37,2013-07-25 12:38:00,
2013-07-25 08:43:00,82.2,73.5,29.94,WSW,255,8.0,8.0,75,0.00,SCT,OVC,0.00,WeatherDisplay:10.37,2013-07-25 12:43:00,
2013-07-25 08:49:00,82.4,73.3,29.94,SW,223,17.3,17.3,74,0.00,SCT,OVC,0.00,WeatherDisplay:10.37,2013-07-25 12:49:00,
2013-07-25 08:54:00,82.4,72.9,29.94,SSW,213,17.3,17.3,73,0.00,SCT,OVC,0.00,WeatherDisplay:10.37,2013-07-25 12:54:00,
2013-07-25 08:59:00,82.4,73.3,29.94,SW,233,5.8,0.0,74,0.00,SCT,OVC,0.00,WeatherDisplay:10.37,2013-07-25 12:59:00,
2013-07-25 09:04:00,82.6,73.1,29.94,WSW,252,10.4,11.0,73,0.00,SCT,OVC,0.00,WeatherDisplay:10.37,2013-07-25 13:04:00,
2013-07-25 09:09:00,82.8,72.4,29.94,WSW,251,18.4,18.4,71,0.00,SCT,OVC,0.00,WeatherDisplay:10.37,2013-07-25 13:09:00,
2013-07-25 09:14:00,83.0,72.6,29.94,West,259,20.7,20.7,71,0.00,SCT,OVC,0.00,WeatherDisplay:10.37,2013-07-25 13:14:00,
2013-07-25 09:19:00,83.2,73.2,29.95,WSW,252,10.4,10.4,72,0.00,SCT,OVC,0.00,WeatherDisplay:10.37,2013-07-25 13:19:00,
2013-07-25 09:24:00,83.6,73.2,29.95,SSW,211,0.0,0.0,71,0.00,SCT,OVC,0.00,WeatherDisplay:10.37,2013-07-25 13:24:00,
2013-07-25 09:29:00,83.8,72.5,29.95,SW,234,26.0,26.0,69,0.00,SCT,OVC,0.00,WeatherDisplay:10.37,2013-07-25 13:29:00,
2013-07-25 09:34:00,83.4,72.2,29.95,WSW,242,19.6,19.6,69,0.00,SCT,OVC,0.00,WeatherDisplay:10.37,2013-07-25 13:34:00,
2013-07-25 09:39:00,83.6,72.8,29.95,SW,223,7.0,7.0,70,0.00,SCT,OVC,0.00,WeatherDisplay:10.37,2013-07-25 13:39:00,
2013-07-25 09:44:00,84.0,72.7,29.95,West,276,21.9,21.9,69,0.00,SCT,OVC,0.00,WeatherDisplay:10.37,2013-07-25 13:44:00,
2013-07-25 09:49:00,84.1,72.8,29.95,WNW,290,12.7,12.7,69,0.00,SCT,OVC,0.00,WeatherDisplay:10.37,2013-07-25 13:49:00,
2013-07-25 09:54:00,84.3,72.1,29.95,SW,231,19.6,19.6,67,0.00,SCT,OVC,0.00,WeatherDisplay:10.37,2013-07-25 13:54:00,
2013-07-25 09:59:00,84.3,72.6,29.96,WSW,248,17.3,17.3,68,0.00,SCT,OVC,0.00,WeatherDisplay:10.37,2013-07-25 13:59:00,
2013-07-25 10:04:00,84.3,72.6,29.96,WSW,244,11.5,11.5,68,0.00,SCT,OVC,0.00,WeatherDisplay:10.37,2013-07-25 14:04:00,
2013-07-25 10:09:00,84.5,72.3,29.96,WSW,237,16.1,16.1,67,0.00,SCT,OVC,0.00,WeatherDisplay:10.37,2013-07-25 14:09:00,
2013-07-25 10:14:00,84.9,72.7,29.96,SW,221,6.0,6.0,67,0.00,SCT,OVC,0.00,WeatherDisplay:10.37,2013-07-25 14:14:00,
2013-07-25 10:19:00,84.7,72.5,29.96,WSW,258,10.4,10.4,67,0.00,SCT,OVC,0.00,WeatherDisplay:10.37,2013-07-25 14:19:00,
2013-07-25 10:24:00,84.9,72.7,29.96,WSW,245,7.0,7.0,67,0.00,SCT,OVC,0.00,WeatherDisplay:10.37,2013-07-25 14:24:00,
2013-07-25 10:29:00,85.1,72.9,29.97,SW,232,12.7,12.7,67,0.00,SCT,OVC,0.00,WeatherDisplay:10.37,2013-07-25 14:29:00,
2013-07-25 10:34:00,84.9,72.7,29.97,WSW,252,3.5,3.5,67,0.00,SCT,OVC,0.00,WeatherDisplay:10.37,2013-07-25 14:34:00,
2013-07-25 10:39:00,85.1,72.9,29.97,WSW,240,17.3,17.3,67,0.00,SCT,OVC,0.00,WeatherDisplay:10.37,2013-07-25 14:39:00,
2013-07-25 10:44:00,85.1,72.5,29.97,WSW,246,10.0,10.0,66,0.00,SCT,OVC,0.00,WeatherDisplay:10.37,2013-07-25 14:44:00,
2013-07-25 10:49:00,85.5,72.8,29.97,West,263,15.0,15.0,66,0.00,SCT,OVC,0.00,WeatherDisplay:10.37,2013-07-25 14:49:00,
2013-07-25 10:54:00,85.7,72.1,29.97,SW,227,16.1,16.1,64,0.00,SCT,OVC,0.00,WeatherDisplay:10.37,2013-07-25 14:54:00,
2013-07-25 10:59:00,85.7,72.6,29.98,SW,236,12.0,12.0,65,0.00,SCT,OVC,0.00,WeatherDisplay:10.37,2013-07-25 14:59:00,
2013-07-25 11:04:00,85.9,72.8,29.98,WSW,244,17.3,17.3,65,0.00,SCT,OVC,0.00,WeatherDisplay:10.37,2013-07-25 15:04:00,
2013-07-25 11:09:00,86.1,72.5,29.98,WSW,247,11.5,11.5,64,0.00,SCT,OVC,0.00,WeatherDisplay:10.37,2013-07-25 15:09:00,
2013-07-25 11:14:00,86.5,73.3,29.98,SW,232,12.0,12.0,65,0.00,SCT,OVC,0.00,WeatherDisplay:10.37,2013-07-25 15:14:00,
2013-07-25 11:19:00,87.0,72.9,29.98,West,259,10.4,10.4,63,0.00,SCT,OVC,0.00,WeatherDisplay:10.37,2013-07-25 15:19:00,
2013-07-25 11:24:00,87.0,72.9,29.98,WSW,240,21.9,21.9,63,0.00,SCT,OVC,0.00,WeatherDisplay:10.37,2013-07-25 15:24:00,
2013-07-25 11:29:00,87.2,73.1,29.99,WNW,288,16.1,16.1,63,0.00,SCT,OVC,0.00,WeatherDisplay:10.37,2013-07-25 15:29:00,
2013-07-25 11:35:00,87.4,73.3,29.99,WSW,250,21.9,21.9,63,0.00,SCT,OVC,0.00,WeatherDisplay:10.37,2013-07-25 15:35:00,
2013-07-25 11:40:00,87.6,73.0,29.99,West,262,13.8,13.8,62,0.00,SCT,OVC,0.00,WeatherDisplay:10.37,2013-07-25 15:40:00,
2013-07-25 11:45:00,87.4,72.8,29.99,West,280,3.5,3.6,62,0.00,SCT,OVC,0.00,WeatherDisplay:10.37,2013-07-25 15:45:00,
2013-07-25 11:50:00,87.4,73.3,29.99,WSW,237,11.0,11.0,63,0.00,SCT,OVC,0.00,WeatherDisplay:10.37,2013-07-25 15:50:00,
2013-07-25 11:55:00,87.2,73.5,29.99,West,281,18.4,18.4,64,0.00,SCT,OVC,0.00,WeatherDisplay:10.37,2013-07-25 15:55:00,
2013-07-25 12:00:00,87.4,72.3,29.99,SW,230,21.0,21.0,61,0.00,SCT,OVC,0.00,WeatherDisplay:10.37,2013-07-25 16:00:00,
2013-07-25 12:05:00,87.0,72.9,29.99,WSW,248,15.0,15.0,63,0.00,SCT,OVC,0.00,WeatherDisplay:10.37,2013-07-25 16:05:00,
2013-07-25 12:10:00,87.4,73.3,29.99,SW,235,8.1,8.1,63,0.00,SCT,OVC,0.00,WeatherDisplay:10.37,2013-07-25 16:10:00,
2013-07-25 12:15:00,87.8,72.2,29.99,SW,231,21.9,21.9,60,0.00,SCT,OVC,0.00,WeatherDisplay:10.37,2013-07-25 16:15:00,
2013-07-25 12:20:00,87.2,72.6,29.99,SW,227,15.0,15.0,62,0.00,SCT,OVC,0.00,WeatherDisplay:10.37,2013-07-25 16:20:00,
2013-07-25 12:25:00,87.0,73.3,29.99,WSW,241,18.4,18.4,64,0.00,SCT,OVC,0.00,WeatherDisplay:10.37,2013-07-25 16:25:00,
2013-07-25 12:30:00,87.2,73.1,29.99,WSW,244,16.1,16.1,63,0.00,SCT,OVC,0.00,WeatherDisplay:10.37,2013-07-25 16:30:00,
2013-07-25 12:35:00,86.7,73.1,29.99,SW,219,0.0,0.0,64,0.00,SCT,OVC,0.00,WeatherDisplay:10.37,2013-07-25 16:35:00,
2013-07-25 12:40:00,87.2,73.1,29.99,West,261,12.7,12.7,63,0.00,SCT,OVC,0.00,WeatherDisplay:10.37,2013-07-25 16:40:00,
2013-07-25 12:45:00,88.0,72.4,29.98,WSW,250,12.7,12.7,60,0.00,SCT,OVC,0.00,WeatherDisplay:10.37,2013-07-25 16:45:00,
2013-07-25 12:50:00,88.2,73.0,29.98,WSW,256,18.4,18.4,61,0.00,SCT,OVC,0.00,WeatherDisplay:10.37,2013-07-25 16:50:00,
2013-07-25 12:55:00,88.4,73.7,29.98,West,263,21.9,21.9,62,0.00,SCT,OVC,0.00,WeatherDisplay:10.37,2013-07-25 16:55:00,
2013-07-25 13:00:00,88.4,73.2,29.98,WSW,238,15.0,15.0,61,0.00,SCT,OVC,0.00,WeatherDisplay:10.37,2013-07-25 17:00:00,
2013-07-25 13:05:00,88.6,73.4,29.98,SW,234,11.5,11.5,61,0.00,SCT,OVC,0.00,WeatherDisplay:10.37,2013-07-25 17:05:00,
2013-07-25 13:10:00,88.8,72.6,29.98,WSW,240,18.4,18.4,59,0.00,SCT,OVC,0.00,WeatherDisplay:10.37,2013-07-25 17:10:00,
2013-07-25 13:15:00,89.0,72.8,29.98,WSW,249,15.0,15.0,59,0.00,SCT,OVC,0.00,WeatherDisplay:10.37,2013-07-25 17:15:00,
2013-07-25 13:20:00,89.0,73.3,29.98,SW,225,21.9,21.9,60,0.00,SCT,OVC,0.00,WeatherDisplay:10.37,2013-07-25 17:20:00,
2013-07-25 13:25:00,88.6,73.4,29.98,SW,230,23.0,23.0,61,0.00,SCT,OVC,0.00,WeatherDisplay:10.37,2013-07-25 17:25:00,
2013-07-25 13:30:00,88.0,72.9,29.97,SW,221,23.0,23.0,61,0.00,SCT,OVC,0.00,WeatherDisplay:10.37,2013-07-25 17:30:00,
2013-07-25 13:35:00,88.4,73.2,29.97,WSW,255,18.4,18.4,61,0.00,SCT,OVC,0.00,WeatherDisplay:10.37,2013-07-25 17:35:00,
2013-07-25 13:40:00,88.8,73.1,29.97,WSW,244,21.9,21.9,60,0.00,SCT,OVC,0.00,WeatherDisplay:10.37,2013-07-25 17:40:00,
2013-07-25 13:45:00,89.0,73.3,29.96,West,265,12.7,12.7,60,0.00,SCT,OVC,0.00,WeatherDisplay:10.37,2013-07-25 17:45:00,
2013-07-25 13:50:00,89.3,73.6,29.96,WSW,251,12.7,12.7,60,0.00,SCT,OVC,0.00,WeatherDisplay:10.37,2013-07-25 17:50:00,
2013-07-25 13:55:00,89.5,73.3,29.96,SW,231,26.5,26.5,59,0.00,SCT,OVC,0.00,WeatherDisplay:10.37,2013-07-25 17:55:00,
2013-07-25 14:00:00,89.3,73.6,29.96,West,263,12.7,12.7,60,0.00,SCT,OVC,0.00,WeatherDisplay:10.37,2013-07-25 18:00:00,
2013-07-25 14:05:00,89.5,73.8,29.96,SW,219,8.0,8.0,60,0.00,SCT,OVC,0.00,WeatherDisplay:10.37,2013-07-25 18:05:00,
2013-07-25 14:10:00,89.9,74.2,29.96,West,263,18.0,18.0,60,0.00,SCT,OVC,0.00,WeatherDisplay:10.37,2013-07-25 18:10:00,
2013-07-25 14:15:00,90.1,73.3,29.96,SW,234,9.2,9.2,58,0.00,SCT,OVC,0.00,WeatherDisplay:10.37,2013-07-25 18:15:00,
2013-07-25 14:20:00,90.1,73.3,29.96,SW,224,16.1,16.1,58,0.00,SCT,OVC,0.00,WeatherDisplay:10.37,2013-07-25 18:20:00,
2013-07-25 14:25:00,89.9,73.1,29.96,SW,233,18.4,18.4,58,0.00,SCT,OVC,0.00,WeatherDisplay:10.37,2013-07-25 18:25:00,
2013-07-25 14:30:00,90.1,73.3,29.96,West,273,0.0,0.0,58,0.00,SCT,OVC,0.00,WeatherDisplay:10.37,2013-07-25 18:30:00,
2013-07-25 14:35:00,90.7,73.9,29.96,WNW,293,16.1,16.1,58,0.00,SCT,OVC,0.00,WeatherDisplay:10.37,2013-07-25 18:35:00,
2013-07-25 14:40:00,91.2,73.3,29.96,West,264,12.7,12.7,56,0.00,SCT,OVC,0.00,WeatherDisplay:10.37,2013-07-25 18:40:00,
2013-07-25 14:45:00,91.4,73.5,29.96,SW,228,13.8,13.8,56,0.00,SCT,OVC,0.00,WeatherDisplay:10.37,2013-07-25 18:45:00,
2013-07-25 14:50:00,90.7,73.9,29.96,WSW,239,23.0,23.0,58,0.00,SCT,OVC,0.00,WeatherDisplay:10.37,2013-07-25 18:50:00,
2013-07-25 14:55:00,90.3,74.0,29.96,WSW,248,6.9,6.9,59,0.00,SCT,OVC,0.00,WeatherDisplay:10.37,2013-07-25 18:55:00,
2013-07-25 15:00:00,90.7,73.9,29.95,WSW,248,0.0,1.3,58,0.00,SCT,OVC,0.00,WeatherDisplay:10.37,2013-07-25 19:00:00,
2013-07-25 15:05:00,91.4,73.5,29.95,West,269,10.4,10.4,56,0.00,SCT,OVC,0.00,WeatherDisplay:10.37,2013-07-25 19:05:00,
2013-07-25 15:10:00,91.4,73.0,29.95,WSW,255,21.9,21.9,55,0.00,SCT,OVC,0.00,WeatherDisplay:10.37,2013-07-25 19:10:00,
2013-07-25 15:16:00,91.2,73.3,29.95,SW,229,18.4,18.4,56,0.00,SCT,OVC,0.00,WeatherDisplay:10.37,2013-07-25 19:16:00,
2013-07-25 15:21:00,91.0,73.7,29.95,West,274,21.9,21.9,57,0.00,SCT,OVC,0.00,WeatherDisplay:10.37,2013-07-25 19:21:00,
2013-07-25 15:26:00,91.4,74.0,29.95,WSW,249,4.6,4.6,57,0.00,SCT,OVC,0.00,WeatherDisplay:10.37,2013-07-25 19:26:00,
2013-07-25 15:31:00,92.1,73.1,29.95,WSW,248,11.5,11.5,54,0.00,SCT,OVC,0.00,WeatherDisplay:10.37,2013-07-25 19:31:00,
2013-07-25 15:36:00,92.1,73.6,29.95,WSW,246,0.0,0.6,55,0.00,SCT,OVC,0.00,WeatherDisplay:10.37,2013-07-25 19:36:00,
2013-07-25 15:41:00,92.3,73.2,29.95,SW,225,10.0,10.4,54,0.00,SCT,OVC,0.00,WeatherDisplay:10.37,2013-07-25 19:41:00,
2013-07-25 15:46:00,91.8,73.3,29.94,WSW,244,8.1,8.1,55,0.00,SCT,OVC,0.00,WeatherDisplay:10.37,2013-07-25 19:46:00,
2013-07-25 15:51:00,91.8,73.9,29.94,SW,226,1.0,0.0,56,0.00,SCT,OVC,0.00,WeatherDisplay:10.37,2013-07-25 19:51:00,
2013-07-25 15:56:00,91.6,73.1,29.94,West,269,17.3,0.0,55,0.00,SCT,OVC,0.00,WeatherDisplay:10.37,2013-07-25 19:56:00,
2013-07-25 16:01:00,91.6,73.7,29.94,WSW,248,5.8,5.8,56,0.00,SCT,OVC,0.00,WeatherDisplay:10.37,2013-07-25 20:01:00,
2013-07-25 16:06:00,91.8,72.2,29.94,WSW,249,19.6,19.6,53,0.00,SCT,OVC,0.00,WeatherDisplay:10.37,2013-07-25 20:06:00,
2013-07-25 16:11:00,91.4,72.4,29.94,WSW,240,11.5,11.5,54,0.00,SCT,OVC,0.00,WeatherDisplay:10.37,2013-07-25 20:11:00,
2013-07-25 16:16:00,91.4,73.0,29.94,WSW,238,0.0,0.0,55,0.00,SCT,OVC,0.00,WeatherDisplay:10.37,2013-07-25 20:16:00,
2013-07-25 16:21:00,91.0,73.1,29.94,WSW,251,26.5,26.5,56,0.00,SCT,OVC,0.00,WeatherDisplay:10.37,2013-07-25 20:21:00,
2013-07-25 16:26:00,90.7,72.3,29.94,West,259,0.0,0.0,55,0.00,SCT,OVC,0.00,WeatherDisplay:10.37,2013-07-25 20:26:00,
2013-07-25 16:31:00,91.0,72.0,29.94,WSW,243,20.7,20.7,54,0.00,SCT,OVC,0.00,WeatherDisplay:10.37,2013-07-25 20:31:00,
2013-07-25 16:36:00,90.5,72.1,29.94,WSW,242,19.6,19.6,55,0.00,SCT,OVC,0.00,WeatherDisplay:10.37,2013-07-25 20:36:00,
2013-07-25 16:41:00,90.3,71.9,29.94,West,277,16.1,16.1,55,0.00,SCT,OVC,0.00,WeatherDisplay:10.37,2013-07-25 20:41:00,
2013-07-25 16:46:00,90.3,72.5,29.94,WNW,288,11.5,11.5,56,0.00,SCT,OVC,0.00,WeatherDisplay:10.37,2013-07-25 20:46:00,
2013-07-25 16:51:00,90.5,71.6,29.94,WSW,255,16.1,16.1,54,0.00,SCT,OVC,0.00,WeatherDisplay:10.37,2013-07-25 20:51:00,
2013-07-25 16:56:00,90.3,72.5,29.94,West,273,8.1,8.1,56,0.00,SCT,OVC,0.00,WeatherDisplay:10.37,2013-07-25 20:56:00,
2013-07-25 17:02:00,90.5,72.7,29.94,WNW,289,3.5,3.5,56,0.00,SCT,OVC,0.00,WeatherDisplay:10.37,2013-07-25 21:02:00,
2013-07-25 17:07:00,91.0,73.7,29.94,West,281,11.5,11.5,57,0.00,SCT,OVC,0.00,WeatherDisplay:10.37,2013-07-25 21:07:00,
2013-07-25 17:12:00,91.2,73.8,29.94,West,279,10.4,10.4,57,0.00,SCT,OVC,0.00,WeatherDisplay:10.37,2013-07-25 21:12:00,
2013-07-25 17:17:00,91.4,72.4,29.95,WSW,252,0.0,0.0,54,0.00,SCT,OVC,0.00,WeatherDisplay:10.37,2013-07-25 21:17:00,
2013-07-25 17:22:00,91.4,73.0,29.95,West,265,8.1,8.1,55,0.00,SCT,OVC,0.00,WeatherDisplay:10.37,2013-07-25 21:22:00,
2013-07-25 17:27:00,91.0,73.7,29.95,WNW,300,23.0,23.0,57,0.00,SCT,OVC,0.00,WeatherDisplay:10.37,2013-07-25 21:27:00,
2013-07-25 17:32:00,90.7,73.4,29.94,West,281,0.0,0.0,57,0.00,SCT,OVC,0.00,WeatherDisplay:10.37,2013-07-25 21:32:00,
2013-07-25 17:37:00,90.7,73.9,29.94,West,276,10.0,10.0,58,0.00,SCT,OVC,0.00,WeatherDisplay:10.37,2013-07-25 21:37:00,
2013-07-25 17:42:00,90.7,72.8,29.94,SW,236,16.1,16.1,56,0.00,SCT,OVC,0.00,WeatherDisplay:10.37,2013-07-25 21:42:00,
2013-07-25 17:47:00,90.7,72.3,29.94,West,281,13.8,13.8,55,0.00,SCT,OVC,0.00,WeatherDisplay:10.37,2013-07-25 21:47:00,
2013-07-25 17:52:00,90.5,72.7,29.94,WNW,286,8.1,8.1,56,0.00,SCT,OVC,0.00,WeatherDisplay:10.37,2013-07-25 21:52:00,
2013-07-25 17:57:00,90.3,73.0,29.94,WSW,240,6.9,6.9,57,0.00,SCT,OVC,0.00,WeatherDisplay:10.37,2013-07-25 21:57:00,
2013-07-25 18:02:00,90.3,73.0,29.94,West,275,0.0,0.0,57,0.00,SCT,OVC,0.00,WeatherDisplay:10.37,2013-07-25 22:02:00,
2013-07-25 18:07:00,90.3,73.5,29.94,WSW,257,0.0,0.0,58,0.00,SCT,OVC,0.00,WeatherDisplay:10.37,2013-07-25 22:07:00,
2013-07-25 18:12:00,90.3,74.0,29.94,West,280,0.0,0.0,59,0.00,SCT,OVC,0.00,WeatherDisplay:10.37,2013-07-25 22:12:00,
2013-07-25 18:17:00,90.3,74.5,29.94,WSW,257,0.0,0.0,60,0.00,SCT,OVC,0.00,WeatherDisplay:10.37,2013-07-25 22:17:00,
2013-07-25 18:22:00,90.1,73.8,29.94,NW,318,9.2,9.2,59,0.00,SCT,OVC,0.00,WeatherDisplay:10.37,2013-07-25 22:22:00,
2013-07-25 18:27:00,89.9,73.7,29.94,WNW,286,5.8,5.8,59,0.00,SCT,OVC,0.00,WeatherDisplay:10.37,2013-07-25 22:27:00,
2013-07-25 18:32:00,89.7,73.5,29.95,NW,310,13.8,13.8,59,0.00,SCT,OVC,0.00,WeatherDisplay:10.37,2013-07-25 22:32:00,
2013-07-25 18:37:00,89.7,73.5,29.95,West,271,6.9,6.9,59,0.00,SCT,OVC,0.00,WeatherDisplay:10.37,2013-07-25 22:37:00,
2013-07-25 18:42:00,89.3,73.6,29.95,WNW,282,0.0,0.0,60,0.00,SCT,OVC,0.00,WeatherDisplay:10.37,2013-07-25 22:42:00,
2013-07-25 18:47:00,89.0,72.8,29.95,West,267,9.2,9.2,59,0.00,SCT,OVC,0.00,WeatherDisplay:10.37,2013-07-25 22:47:00,
2013-07-25 18:52:00,88.8,73.1,29.95,West,273,0.0,0.0,60,0.00,SCT,OVC,0.00,WeatherDisplay:10.37,2013-07-25 22:52:00,
2013-07-25 18:57:00,88.6,72.9,29.95,West,273,0.0,0.0,60,0.00,SCT,OVC,0.00,WeatherDisplay:10.37,2013-07-25 22:57:00,
2013-07-25 19:02:00,88.2,72.6,29.95,West,264,3.5,0.0,60,0.00,SCT,OVC,0.00,WeatherDisplay:10.37,2013-07-25 23:02:00,
2013-07-25 19:07:00,88.2,72.6,29.95,WSW,243,5.0,5.0,60,0.00,SCT,OVC,0.00,WeatherDisplay:10.37,2013-07-25 23:07:00,
2013-07-25 19:12:00,88.0,72.4,29.95,WSW,257,3.5,3.5,60,0.00,SCT,OVC,0.00,WeatherDisplay:10.37,2013-07-25 23:12:00,
2013-07-25 19:17:00,88.0,72.4,29.95,WSW,248,0.0,0.0,60,0.00,SCT,OVC,0.00,WeatherDisplay:10.37,2013-07-25 23:17:00,
2013-07-25 19:22:00,88.0,72.4,29.95,WSW,255,3.5,3.5,60,0.00,SCT,OVC,0.00,WeatherDisplay:10.37,2013-07-25 23:22:00,
2013-07-25 19:27:00,88.0,72.9,29.95,WSW,246,0.0,0.0,61,0.00,SCT,OVC,0.00,WeatherDisplay:10.37,2013-07-25 23:27:00,
2013-07-25 19:32:00,88.0,73.3,29.95,West,260,11.5,11.5,62,0.00,SCT,OVC,0.00,WeatherDisplay:10.37,2013-07-25 23:32:00,
2013-07-25 19:37:00,87.8,73.6,29.95,WNW,284,5.8,5.8,63,0.00,SCT,OVC,0.00,WeatherDisplay:10.37,2013-07-25 23:37:00,
2013-07-25 19:42:00,87.8,74.1,29.95,WNW,285,3.0,3.0,64,0.00,SCT,OVC,0.00,WeatherDisplay:10.37,2013-07-25 23:42:00,
2013-07-25 19:47:00,87.6,73.9,29.95,WNW,287,1.2,1.2,64,0.00,SCT,OVC,0.00,WeatherDisplay:10.37,2013-07-25 23:47:00,
2013-07-25 19:52:00,87.4,73.7,29.95,WNW,291,4.6,4.6,64,0.00,SCT,OVC,0.00,WeatherDisplay:10.37,2013-07-25 23:52:00,
2013-07-25 19:57:00,87.2,74.0,29.95,WNW,295,4.6,4.6,65,0.00,SCT,OVC,0.00,WeatherDisplay:10.37,2013-07-25 23:57:00,
2013-07-25 20:02:00,87.0,74.3,29.96,WNW,295,0.0,0.0,66,0.00,SCT,OVC,0.00,WeatherDisplay:10.37,2013-07-26 00:02:00,
2013-07-25 20:07:00,86.7,74.0,29.96,WNW,288,0.0,0.6,66,0.00,SCT,OVC,0.00,WeatherDisplay:10.37,2013-07-26 00:07:00,
2013-07-25 20:12:00,86.5,74.2,29.96,WNW,288,0.0,0.0,67,0.00,SCT,OVC,0.00,WeatherDisplay:10.37,2013-07-26 00:12:00,
2013-07-25 20:17:00,86.5,74.2,29.95,WNW,288,0.0,0.0,67,0.00,SCT,OVC,0.00,WeatherDisplay:10.37,2013-07-26 00:17:00,
2013-07-25 20:22:00,86.1,74.3,29.95,WNW,288,0.0,0.0,68,0.00,SCT,OVC,0.00,WeatherDisplay:10.37,2013-07-26 00:22:00,
2013-07-25 20:27:00,85.9,74.1,29.95,WNW,288,0.0,0.0,68,0.00,SCT,OVC,0.00,WeatherDisplay:10.37,2013-07-26 00:27:00,
2013-07-25 20:32:00,85.7,73.9,29.95,WNW,288,0.0,0.0,68,0.00,SCT,OVC,0.00,WeatherDisplay:10.37,2013-07-26 00:32:00,
2013-07-25 20:38:00,85.5,74.2,29.95,WNW,288,0.0,0.0,69,0.00,SCT,OVC,0.00,WeatherDisplay:10.37,2013-07-26 00:38:00,
2013-07-25 20:42:00,85.3,74.0,29.95,WNW,288,0.0,0.0,69,0.00,SCT,OVC,0.00,WeatherDisplay:10.37,2013-07-26 00:42:00,
2013-07-25 20:48:00,85.1,73.8,29.95,WNW,288,6.9,6.9,69,0.00,SCT,OVC,0.00,WeatherDisplay:10.37,2013-07-26 00:48:00,
2013-07-25 20:53:00,85.1,73.8,29.95,West,281,0.0,1.0,69,0.00,SCT,OVC,0.00,WeatherDisplay:10.37,2013-07-26 00:53:00,
2013-07-25 20:58:00,84.9,73.6,29.95,West,280,0.0,0.0,69,0.00,SCT,OVC,0.00,WeatherDisplay:10.37,2013-07-26 00:58:00,
2013-07-25 21:03:00,84.9,73.6,29.95,West,269,0.0,0.0,69,0.00,SCT,OVC,0.00,WeatherDisplay:10.37,2013-07-26 01:03:00,
2013-07-25 21:08:00,84.7,73.4,29.95,WNW,286,10.4,10.4,69,0.00,SCT,OVC,0.00,WeatherDisplay:10.37,2013-07-26 01:08:00,
2013-07-25 21:13:00,84.7,73.0,29.95,West,268,6.9,6.9,68,0.00,SCT,OVC,0.00,WeatherDisplay:10.37,2013-07-26 01:13:00,
2013-07-25 21:18:00,84.5,72.8,29.96,West,271,0.0,0.0,68,0.00,SCT,OVC,0.00,WeatherDisplay:10.37,2013-07-26 01:18:00,
2013-07-25 21:23:00,84.5,72.8,29.96,WSW,249,10.4,10.4,68,0.00,SCT,OVC,0.00,WeatherDisplay:10.37,2013-07-26 01:23:00,
2013-07-25 21:28:00,84.7,73.0,29.96,West,268,11.5,11.5,68,0.00,SCT,OVC,0.00,WeatherDisplay:10.37,2013-07-26 01:28:00,
2013-07-25 21:33:00,84.7,73.0,29.96,West,269,1.2,0.0,68,0.00,SCT,OVC,0.00,WeatherDisplay:10.37,2013-07-26 01:33:00,
2013-07-25 21:38:00,84.7,73.0,29.96,WSW,257,5.8,5.8,68,0.00,SCT,OVC,0.00,WeatherDisplay:10.37,2013-07-26 01:38:00,
2013-07-25 21:43:00,84.7,73.0,29.96,WNW,284,10.4,10.4,68,0.00,SCT,OVC,0.00,WeatherDisplay:10.37,2013-07-26 01:43:00,
2013-07-25 21:48:00,84.7,73.0,29.96,WSW,257,9.2,9.2,68,0.00,SCT,OVC,0.00,WeatherDisplay:10.37,2013-07-26 01:48:00,
2013-07-25 21:53:00,84.5,73.2,29.96,West,281,3.5,0.0,69,0.00,SCT,OVC,0.00,WeatherDisplay:10.37,2013-07-26 01:53:00,
2013-07-25 21:58:00,84.5,73.2,29.96,WSW,244,12.7,12.7,69,0.00,SCT,OVC,0.00,WeatherDisplay:10.37,2013-07-26 01:58:00,
2013-07-25 22:03:00,84.5,73.2,29.96,West,259,16.1,16.1,69,0.00,SCT,OVC,0.00,WeatherDisplay:10.37,2013-07-26 02:03:00,
2013-07-25 22:08:00,84.5,73.6,29.96,WNW,282,9.2,9.2,70,0.00,SCT,OVC,0.00,WeatherDisplay:10.37,2013-07-26 02:08:00,
2013-07-25 22:13:00,84.3,73.9,29.96,West,269,9.2,9.2,71,0.00,SCT,OVC,0.00,WeatherDisplay:10.37,2013-07-26 02:13:00,
2013-07-25 22:18:00,84.3,73.9,29.97,West,259,9.2,9.2,71,0.00,SCT,OVC,0.00,WeatherDisplay:10.37,2013-07-26 02:18:00,
2013-07-25 22:23:00,84.1,73.7,29.97,West,260,13.8,13.8,71,0.00,SCT,OVC,0.00,WeatherDisplay:10.37,2013-07-26 02:23:00,
2013-07-25 22:28:00,84.0,73.6,29.97,WSW,246,11.5,11.5,71,0.00,SCT,OVC,0.00,WeatherDisplay:10.37,2013-07-26 02:28:00,
2013-07-25 22:33:00,83.8,73.0,29.98,WSW,256,15.0,15.0,70,0.00,SCT,OVC,0.00,WeatherDisplay:10.37,2013-07-26 02:33:00,
2013-07-25 22:38:00,83.8,73.0,29.98,West,261,10.4,10.4,70,0.00,SCT,OVC,0.00,WeatherDisplay:10.37,2013-07-26 02:38:00,
2013-07-25 22:43:00,83.6,72.8,29.98,West,261,4.0,4.0,70,0.00,SCT,OVC,0.00,WeatherDisplay:10.37,2013-07-26 02:43:00,
2013-07-25 22:48:00,83.6,72.8,29.98,West,276,8.1,8.1,70,0.00,SCT,OVC,0.00,WeatherDisplay:10.37,2013-07-26 02:48:00,
2013-07-25 22:53:00,83.4,72.6,29.98,WSW,243,3.5,3.5,70,0.00,SCT,OVC,0.00,WeatherDisplay:10.37,2013-07-26 02:53:00,
2013-07-25 22:58:00,83.4,73.0,29.98,West,271,14.0,14.0,71,0.00,SCT,OVC,0.00,WeatherDisplay:10.37,2013-07-26 02:58:00,
2013-07-25 23:03:00,83.4,73.0,29.98,WSW,241,11.5,11.5,71,0.00,SCT,OVC,0.00,WeatherDisplay:10.37,2013-07-26 03:03:00,
2013-07-25 23:08:00,83.2,72.8,29.98,WNW,284,12.7,12.7,71,0.00,SCT,OVC,0.00,WeatherDisplay:10.37,2013-07-26 03:08:00,
2013-07-25 23:13:00,83.2,73.2,29.98,WSW,257,11.5,11.5,72,0.00,SCT,OVC,0.00,WeatherDisplay:10.37,2013-07-26 03:13:00,
2013-07-25 23:18:00,83.0,73.0,29.98,WSW,255,10.4,10.4,72,0.00,SCT,OVC,0.00,WeatherDisplay:10.37,2013-07-26 03:18:00,
2013-07-25 23:23:00,83.0,73.4,29.98,WSW,241,9.2,9.2,73,0.00,SCT,OVC,0.00,WeatherDisplay:10.37,2013-07-26 03:23:00,
2013-07-25 23:28:00,82.8,73.7,29.98,WSW,244,12.7,12.7,74,0.00,SCT,OVC,0.00,WeatherDisplay:10.37,2013-07-26 03:28:00,
2013-07-25 23:33:00,82.8,73.7,29.98,WSW,241,12.0,12.0,74,0.00,SCT,OVC,0.00,WeatherDisplay:10.37,2013-07-26 03:33:00,
2013-07-25 23:38:00,82.8,73.7,29.98,WSW,240,7.0,7.0,74,0.00,SCT,OVC,0.00,WeatherDisplay:10.37,2013-07-26 03:38:00,
2013-07-25 23:43:00,82.6,73.5,29.98,WSW,248,9.2,9.2,74,0.00,SCT,OVC,0.00,WeatherDisplay:10.37,2013-07-26 03:43:00,
2013-07-25 23:48:00,82.6,73.5,29.98,WSW,241,15.0,15.0,74,0.00,SCT,OVC,0.00,WeatherDisplay:10.37,2013-07-26 03:48:00,
2013-07-25 23:53:00,82.6,73.5,29.98,SW,236,8.0,8.0,74,0.00,SCT,OVC,0.00,WeatherDisplay:10.37,2013-07-26 03:53:00,
2013-07-25 23:58:00,82.4,73.7,29.98,SW,229,11.5,11.5,75,0.00,SCT,OVC,0.00,WeatherDisplay:10.37,2013-07-26 03:58:00,